Probability
9 7 7 6 5 5 8 10 11 12 12 11 10 7 4 2 1 0 0 0 0 0 0 1 2 3 2 1 2 3 3 3 4 3 2 1 0 0 0 0 0 0 0
10 9 8 7 7 7 9 12 14 13 12 11 10 8 5 4 3 1 1 1 1 1 2 3 4 5 4 3 3 3 3 3 4 4 2 1 1 1 0 0 0 0 0
12 11 9 8 7 7 10 14 17 16 13 11 10 9 7 7 7 5 4 4 4 4 5 6 7 6 5 4 4 3 3 3 3 3 2 1 1 1 0 0 0 0 0
11 11 10 7 6 6 8 13 18 17 13 11 10 9 8 9 10 8 7 7 6 5 5 7 7 6 6 6 5 4 4 4 3 3 3 3 2 2 1 0 0 0 0
8 9 9 7 5 5 8 12 15 16 13 11 10 9 8 8 8 9 9 7 5 4 5 7 8 8 7 6 6 6 6 6 5 4 4 4 5 4 3 2 0 0 0
6 7 8 8 6 6 8 10 13 15 14 11 10 9 8 8 8 9 8 6 4 4 5 7 9 9 8 7 7 7 8 8 7 6 6 7 7 6 5 4 2 1 0
7 7 8 8 7 8 8 9 12 16 16 12 10 9 9 8 9 8 7 5 4 5 5 6 8 10 10 9 8 9 10 9 8 8 8 9 9 9 8 6 4 2 1
9 9 8 7 7 8 8 9 13 17 18 16 14 13 11 9 8 7 6 4 4 5 6 6 7 10 11 12 11 11 11 11 9 8 8 9 10 11 9 7 6 4 3
11 12 10 8 7 7 8 11 15 18 19 19 18 18 16 11 8 7 6 6 6 7 7 8 9 11 12 13 12 11 11 11 10 8 8 9 10 11 10 9 8 7 6
16 16 14 11 9 10 11 14 17 17 18 19 20 22 20 15 12 10 10 11 11 12 11 11 12 12 12 12 11 10 10 11 11 10 9 10 11 10 10 10 10 10 8
17 19 18 15 13 14 17 19 18 16 16 17 20 21 21 19 16 15 15 15 15 15 15 14 13 12 12 12 11 11 11 12 13 12 10 9 10 10 10 10 11 11 10
18 21 22 21 18 18 21 22 19 15 14 16 19 21 21 21 21 20 19 18 18 17 17 16 14 12 11 11 11 12 13 13 13 12 10 8 8 9 10 11 12 11 10
25 25 27 27 24 23 23 24 22 19 17 17 20 21 23 24 23 22 21 20 19 17 16 15 14 11 10 10 11 12 13 13 12 10 9 7 7 8 10 12 12 11 9
34 32 31 31 29 27 27 28 28 26 23 21 21 22 24 24 22 19 19 19 18 15 13 12 12 11 10 10 10 11 12 12 11 10 8 7 6 8 9 10 10 10 9
41 39 37 37 36 35 35 35 34 32 30 27 24 23 23 23 20 17 17 18 17 15 13 11 11 11 10 9 8 9 10 10 10 9 9 7 6 6 6 6 6 8 9
48 46 44 43 44 45 43 41 38 35 34 32 28 25 24 23 21 19 18 19 19 17 15 13 11 11 9 7 6 6 8 9 10 10 9 8 6 4 3 2 2 4 5
49 49 49 49 49 48 46 43 39 36 35 33 31 28 26 25 24 22 22 22 23 22 19 15 12 10 9 7 5 5 7 9 10 10 9 8 5 3 2 1 1 2 2
46 49 51 51 50 47 45 44 41 39 37 34 31 30 28 27 26 25 24 24 24 24 21 17 13 11 9 6 4 4 6 9 9 9 8 7 5 3 2 2 2 2 2
46 50 53 54 53 51 48 46 45 44 42 37 32 29 28 27 26 26 25 24 23 22 19 16 13 10 7 4 2 3 5 7 7 7 6 6 4 2 1 2 3 4 4
49 52 56 57 57 55 52 51 50 49 45 40 34 29 26 25 26 26 26 24 23 21 17 13 11 9 6 3 1 2 5 6 5 4 4 4 3 1 0 2 3 4 3
50 53 58 59 57 56 55 55 54 51 47 42 36 30 27 25 25 26 26 26 25 22 16 10 7 7 6 4 2 2 3 4 3 3 3 3 2 0 0 1 3 3 2
50 53 58 57 53 52 53 55 54 50 47 43 37 31 27 24 23 24 24 24 23 20 14 8 5 5 5 5 3 3 2 2 1 2 3 3 1 0 0 1 1 1 0
51 53 56 54 51 48 49 51 50 49 47 43 37 31 27 25 23 21 19 18 18 14 9 6 4 4 4 4 3 2 2 1 2 2 3 2 1 0 0 0 0 0 0
50 52 54 54 51 47 45 45 45 46 46 42 35 29 25 24 22 17 13 13 12 9 6 4 4 4 4 4 3 2 2 2 2 2 3 3 1 0 0 0 0 0 0
48 50 52 52 48 43 41 40 41 42 42 39 31 24 21 20 18 14 10 8 7 6 4 4 3 4 4 3 3 2 2 2 1 1 3 3 2 1 1 1 1 1 1
45 48 49 48 44 39 37 38 39 39 39 35 27 19 18 18 15 11 8 5 3 3 4 4 3 3 3 3 3 2 1 1 0 1 2 3 3 2 2 2 2 2 1
Wind_Speed
7 6 6 6 6 5 5 4 3 3 3 2 2 2 2 2 2 1 1 1 1 2 2 2 2 3 2 2 2 2 2 2 2 2 2 2 2 1 1 1 1 1 1
8 7 7 7 7 6 6 5 5 4 4 2 1 1 1 1 1 0 1 1 1 2 2 2 2 2 2 3 3 3 2 2 2 2 2 2 3 2 1 1 1 1 1
9 9 9 8 8 7 7 5 5 4 4 3 3 2 2 2 2 2 1 1 1 1 2 2 2 2 3 2 3 3 4 3 3 3 3 2 1 1 2 2 1 1 1
9 9 9 9 8 8 7 6 6 5 5 4 3 3 2 1 1 1 1 1 1 1 1 2 2 2 2 2 4 3 3 4 3 3 3 3 2 2 2 2 2 2 1
10 10 10 9 8 8 7 7 6 6 5 4 4 3 2 1 1 1 1 1 1 1 1 2 2 2 2 2 3 2 4 4 4 3 2 2 3 4 3 2 2 1 1
10 10 9 9 8 8 8 7 7 6 5 5 4 3 2 1 1 1 1 1 1 1 0 1 2 2 2 2 3 3 3 3 4 4 3 3 3 3 2 2 2 1 1
11 11 10 10 10 9 9 8 8 7 6 6 5 4 3 2 2 2 1 1 1 0 0 1 1 2 2 2 3 3 3 3 3 4 3 3 3 2 2 3 2 1 1
11 11 11 11 10 10 10 9 8 7 7 6 5 4 3 3 1 1 2 1 1 1 1 1 1 2 2 2 2 2 2 1 2 3 3 3 2 2 3 2 2 2 1
12 12 11 11 11 10 10 10 9 8 7 6 5 5 4 2 1 1 2 1 1 0 0 1 1 1 1 1 2 1 1 1 1 2 2 2 2 2 2 2 3 3 2
12 11 11 11 10 10 10 9 9 8 7 7 6 4 4 3 2 2 1 1 1 1 1 1 1 1 1 1 1 1 0 0 1 1 1 2 1 1 1 2 2 2 2
11 11 10 10 10 9 9 9 9 8 7 6 5 4 4 4 3 2 2 1 1 1 0 0 0 0 0 0 0 0 0 0 0 1 1 1 1 1 1 1 1 1 1
10 10 11 10 10 10 9 9 9 8 8 7 6 5 4 4 3 3 2 2 1 1 1 1 1 0 0 0 0 0 0 0 0 1 1 1 0 0 1 0 1 1 2
10 10 10 10 10 10 9 9 9 9 8 7 7 6 5 4 3 3 2 2 2 1 1 1 1 1 1 1 1 1 0 0 0 1 1 1 1 1 0 0 1 1 2
10 10 10 9 9 9 10 9 9 8 8 8 7 6 5 4 3 3 2 2 2 2 2 1 1 1 1 1 1 1 1 1 1 1 1 1 1 1 0 1 1 1 2
10 10 10 9 10 10 9 9 9 8 8 8 7 6 5 4 4 3 3 3 2 2 2 2 2 1 1 1 1 1 2 1 1 1 1 2 4 5 4 2 1 2 2
8 9 10 10 10 10 10 10 9 9 8 8 7 7 6 5 4 4 4 3 3 2 2 2 2 2 2 4 3 1 2 2 2 2 2 3 4 6 7 7 7 5 2
7 7 9 9 10 10 10 10 10 9 9 8 7 7 7 6 5 4 4 4 3 3 2 2 2 2 3 3 2 1 1 2 2 2 2 2 5 4 5 6 6 6 6
6 7 7 8 9 10 10 10 10 10 9 8 8 7 7 6 6 5 5 4 3 3 2 2 2 2 3 2 1 1 2 3 3 3 3 3 4 3 3 4 5 4 4
4 5 6 7 8 9 10 11 10 10 9 9 8 8 7 7 6 5 4 4 3 3 3 3 2 2 3 2 2 3 3 3 3 3 3 2 3 4 2 2 4 4 4
2 4 5 6 7 8 10 11 10 10 9 9 8 8 7 7 6 5 5 4 4 4 3 3 2 3 3 3 2 3 2 3 3 3 4 4 3 3 1 1 2 3 2
3 4 6 6 7 8 9 10 10 9 8 8 7 7 7 7 6 6 5 5 4 4 3 3 3 3 3 4 2 1 1 2 3 3 3 4 5 3 1 1 1 1 1
3 5 5 6 6 8 9 8 8 7 7 8 7 7 7 6 6 6 5 4 4 4 4 3 3 3 3 3 3 1 1 2 2 1 2 4 5 3 2 1 1 1 4
3 4 5 6 6 7 8 8 7 7 8 8 7 6 6 5 5 6 6 5 4 3 3 4 3 3 3 4 4 4 1 1 0 2 5 4 5 4 4 4 3 4 3
3 4 5 6 5 6 6 7 7 8 8 8 7 6 6 6 5 4 4 4 4 4 4 3 3 3 3 3 4 5 5 5 4 3 5 6 5 4 2 4 5 4 2
3 4 4 5 5 5 6 6 7 8 8 8 7 6 6 6 5 4 2 2 2 1 2 2 3 3 3 2 1 2 3 2 2 2 3 4 4 4 4 3 3 2 3
3 4 4 4 5 5 5 5 6 7 7 6 6 5 5 5 5 5 4 5 3 4 2 2 1 2 3 5 4 2 1 1 2 3 4 3 3 3 3 3 3 3 3
Wind_Direction
180 177 180 187 182 177 181 186 190 177 202 202 211 198 186 190 174 181 167 200 225 217 236 266 217 247 241 241 231 225 207 213 194 229 221 199 183 185 193 229 227 178 198
181 177 181 182 184 179 183 184 186 185 198 182 209 225 232 206 186 214 164 228 237 250 224 241 252 228 231 231 233 226 249 235 210 244 255 225 175 167 167 165 174 193 157
189 182 185 186 184 182 185 184 183 183 190 192 197 191 189 204 190 188 187 218 244 261 293 269 272 264 245 226 242 235 232 242 231 235 260 266 236 162 149 139 123 103 83
189 185 184 186 185 182 179 181 180 181 181 193 206 210 211 212 194 232 132 169 198 277 275 272 263 262 262 247 250 237 249 245 247 230 244 269 296 243 191 166 145 135 98
184 184 185 183 184 180 175 174 176 178 179 187 190 210 219 223 199 176 138 226 174 248 285 280 269 266 268 269 275 278 266 256 257 256 249 238 225 237 238 213 179 164 118
179 179 178 177 180 178 176 172 171 176 178 184 191 202 208 226 255 254 251 232 197 203 255 277 277 272 289 291 279 275 265 273 272 271 263 254 247 237 238 225 208 193 134
176 176 176 177 180 180 178 175 171 175 178 181 188 192 202 205 212 246 239 283 296 269 339 294 289 297 297 287 279 266 276 270 266 266 271 267 263 258 244 226 216 199 185
175 175 176 177 180 180 179 179 175 176 178 180 182 188 199 213 202 224 280 282 307 339 354 311 293 289 291 288 278 270 262 264 270 274 285 284 275 260 243 231 217 207 199
175 176 175 177 178 180 181 181 177 176 178 180 179 182 189 204 201 204 232 250 270 277 282 293 291 285 284 291 271 285 292 285 275 273 261 272 275 266 258 242 234 232 220
175 175 173 177 176 177 178 180 178 176 177 180 186 176 178 183 195 219 228 300 308 310 289 301 292 271 262 260 269 246 22 298 318 318 331 300 296 283 254 243 237 244 238
173 170 170 172 171 174 175 176 174 175 176 178 178 178 175 176 184 190 207 209 248 261 272 288 287 280 265 213 219 294 136 54 24 357 31 2 341 317 275 252 219 214 170
170 166 165 167 170 172 171 169 171 174 176 173 173 173 172 175 179 173 188 173 185 197 174 166 135 95 66 95 170 200 88 87 61 20 16 355 1 307 296 289 167 156 163
170 165 165 168 171 171 169 169 172 171 170 166 168 165 168 168 172 167 172 163 167 168 158 144 143 116 99 113 123 123 103 97 50 10 4 352 335 308 26 227 149 163 157
173 172 170 171 170 170 169 169 168 166 165 163 163 161 161 161 160 153 154 161 158 152 147 139 149 138 130 137 136 134 129 124 100 58 30 14 350 347 353 126 134 147 141
176 178 177 172 171 169 168 168 166 166 163 162 159 156 153 150 148 147 150 151 147 144 146 157 142 137 140 85 89 151 145 142 125 102 84 69 55 42 25 26 84 139 155
182 180 179 175 173 171 169 167 169 166 164 163 157 151 149 147 149 152 152 149 146 144 147 148 136 120 77 53 22 335 133 128 125 118 113 113 105 89 74 58 53 45 78
191 186 185 182 177 174 170 169 167 165 163 162 157 154 152 153 156 155 148 146 144 137 145 148 143 121 84 66 55 349 146 122 103 101 96 88 93 106 102 100 104 81 58
199 191 187 180 178 173 169 166 162 163 162 161 159 157 156 154 155 152 148 146 141 135 138 142 136 129 105 88 113 214 161 121 108 104 102 101 103 91 94 110 104 100 91
207 192 187 181 172 170 166 164 165 166 167 166 164 162 159 154 154 154 152 150 148 144 147 132 129 131 114 107 168 235 158 134 124 117 105 111 115 77 39 125 119 114 120
186 181 172 163 163 167 165 167 169 170 174 169 167 163 159 156 156 153 152 152 154 153 151 131 132 128 114 110 155 253 177 141 142 136 132 105 96 93 35 143 131 134 124
168 164 162 160 163 165 167 172 173 175 171 166 164 160 158 158 156 152 153 152 152 147 142 132 133 131 121 131 137 283 232 159 156 142 141 116 113 116 108 269 138 128 239
161 161 162 157 158 163 169 171 170 161 156 157 159 159 159 161 153 152 151 151 151 153 156 155 156 149 147 125 137 158 283 327 145 144 125 112 127 139 158 173 107 219 251
158 162 156 148 150 160 166 162 152 151 153 154 154 154 153 155 154 156 154 157 170 179 175 177 177 163 151 137 138 151 159 325 230 90 76 109 148 173 173 166 195 225 230
148 150 150 151 150 152 153 150 151 156 155 153 152 153 155 158 157 160 165 176 182 192 191 189 184 165 161 161 163 167 170 175 185 174 152 170 187 208 172 174 198 218 229
133 142 150 153 152 148 146 149 154 157 155 152 154 159 162 159 158 160 151 194 171 212 221 206 188 180 180 147 126 207 186 185 160 186 195 192 182 191 193 194 196 213 207
119 132 143 144 142 141 141 146 153 157 156 156 162 170 165 161 171 164 145 62 71 88 80 33 333 140 114 139 154 172 163 148 175 225 216 210 210 212 208 206 202 210 214